Location: Canyam�s
(41.5996°N, 2.4450°E)
Time: 15:11:21
(UTC+00:00)

Cosmos 1900 - Pass Details

Date: 06 June 2020
Orbit: 684 x 738 km, 66.1° (Epoch: 10 July)

Event Time Altitude Azimuth Distance (km) Brightness Sun altitude
Rises 20:21:04 0° 330° (NNW) 3,131 9.3 -9.6°
Reaches altitude 10° 20:23:25 10° 331° (NNW) 2,215 8.2 -10.0°
Maximum altitude 20:28:29 78° 59° (ENE) 747 4.4 -10.7°
Enters shadow 20:32:46 15° 145° (SE) 1,917 5.9 -11.2°
